Regional Weather Roundup
Issued by NWS

Home | Current Version | Previous Version | Text Only | Print | Product List | Glossary On
Versions: 1 2 3 4 5 6 7 8 9 10 11 12 13 14 15 16 17 18 19 20 21 22 23 24 25 26 27 28 29 30 31 32 33 34 35 36 37 38 39 40 41 42 43 44
109
ASUS44 KJAN 051003
RWRMS

MISSISSIPPI HOURLY WEATHER ROUNDUP
NATIONAL WEATHER SERVICE JACKSON MS
400 AM CST THU MAR 05 2015

NOTE: "FAIR: INDICATES FEW OR NO CLOUDS BELOW 12,000 FEET WITH NO
SIGNIFICANT WEATHER AND/OR OBSTRUCTIONS TO VISIBILITY.

MSZ001>002-007>008-010>013-018>021-025>028-034>036-051100-
NORTHWEST MISSISSIPPI

CITY           SKY/WX    TMP DP  RH WIND       PRES   REMARKS
CLARKSDALE     MOCLDY    25  23  93 CALM      30.27R
CLEVELAND      CLOUDY    25  24  96 N25G35    30.22S FOG     WCI   9
GREENWOOD      CLOUDY    30  28  92 N14       30.16R FOG     WCI  19
GREENVILLE     MIX PCPN  26  22  84 MISG      30.20S FOG
OLIVE BRANCH   CLOUDY    19  19 100 CALM      30.27R
OXFORD         CLOUDY    25  23  93 MISG      30.21R FOG
TUNICA         LGT SNOW  23  21  93 N14       30.28F WCI  11
$$

MSZ003>006-009-014>017-022>024-029>033-037>039-051100-
NORTHEAST MISSISSIPPI

CITY           SKY/WX    TMP DP  RH WIND       PRES   REMARKS
COLUMBUS AFB   DRIZZLE   35  32  90 N13       30.04S WCI  26
CORINTH        RAIN      25  21  86 N13G21    30.16S WCI  13
GOLDN TRIANGLE CLOUDY    36  30  80 N14       30.03R WCI  27
STARKVILLE     LGT RAIN  32  32 100 NW12G17   30.07R WCI  23
TUPELO         LGT SNOW  29  25  85 NE21G32   30.09S FOG     WCI  16
$$

MSZ040-058-051100-
CENTRAL MISSISSIPPI

CITY           SKY/WX    TMP DP  RH WIND       PRES   REMARKS
JACKSON INTL   LGT RAIN  37  34  89 N18       30.06R WCI  27
JACKSON HAWKNS LGT RAIN  36  33  89 N14G21    30.07R FOG     WCI  27
MERIDIAN KEY   LGT RAIN  40  40 100 N12       29.99R WCI  33
MERIDIAN NAS   RAIN      39  37  92 N10       30.00R FOG     WCI  32
VICKSBURG      MIX PCPN  31  27  85 N17G32    30.18R WCI  19
$$

MSZ059>079-051100-
SOUTH MISSISSIPPI

CITY           SKY/WX    TMP DP  RH WIND       PRES   REMARKS
BROOKHAVEN     LGT RAIN  37  37 100 NW13G18   30.05R WCI  29
HATTIESBURG    CLOUDY    54  51  90 NW14G21   29.96R
MCCOMB         LGT RAIN  41  39  93 N14G23    30.01R
NATCHEZ        NOT AVBL
PINE BELT      CLOUDY    52  46  82 N9        29.97R
$$

MSZ080>082-051100-
COASTAL MISSISSIPPI

CITY           SKY/WX    TMP DP  RH WIND       PRES   REMARKS
BILOXI         MOCLDY    66  66 100 SW12      29.90F FOG
PASCAGOULA     CLOUDY    67  66  97 S3        29.93S FOG
GULFPORT       FOG       67  66  97 S6        29.90F VSB 1/2
$$



USA.gov is the U.S. government's official web portal to all federal, state and local government web resources and services.